Location: Kellogg
(38.0159°N, 90.0546°W)
Time: 22:56:57
(UTC+00:00)

Transit 2A Rocket - All Passes

Search period start: 11 September 2024 00:00
Search period end: 21 September 2024 00:00
Orbit: 582 x 910 km, 66.7° (Epoch: 11 September)

Date Brightness Start Highest point End Pass type
(mag) Time Alt. Az. Time Alt. Az. Time Alt. Az.
11 Sep - 05:38:59 10° S 05:44:30 48° ESE 05:50:17 10° NE visible
11 Sep - 07:22:13 10° WSW 07:27:15 29° NW 07:32:28 10° N visible
11 Sep - 14:24:35 10° N 14:29:31 28° NE 14:34:08 10° ESE daylight
11 Sep - 16:06:50 10° NW 16:12:12 43° WSW 16:17:07 10° S daylight
12 Sep - 04:55:40 10° SSE 05:00:26 27° ESE 05:05:25 10° NE visible
12 Sep - 06:37:03 10° SW 06:42:40 46° NW 06:48:31 10° NNE visible
12 Sep - 13:40:57 10° N 13:44:46 18° NE 13:48:24 10° E daylight
12 Sep - 15:22:17 10° NNW 15:28:03 80° WSW 15:33:16 10° SSE daylight
13 Sep - 04:13:22 10° SE 04:16:31 15° ESE 04:19:44 10° ENE night (unlit)
13 Sep - 05:52:25 10° SSW 05:58:13 78° WNW 06:04:21 10° NNE visible
13 Sep - 07:38:23 10° WNW 07:41:46 15° NW 07:45:13 10° N visible
13 Sep - 12:58:12 10° NNE 12:59:50 11° NE 13:01:25 10° NE daylight
13 Sep - 14:37:59 10° NNW 14:43:42 58° ENE 14:48:53 10° SE daylight
13 Sep - 16:21:55 10° WNW 16:25:32 18° WSW 16:28:58 10° SW daylight
14 Sep - 05:08:15 10° SSW 05:13:56 62° ESE 05:19:57 10° NE visible
14 Sep - 06:52:15 10° W 06:56:56 24° NW 07:01:45 10° N visible
14 Sep - 13:53:56 10° NNW 13:59:10 34° NE 14:04:00 10° ESE daylight
14 Sep - 15:36:35 10° NW 15:41:35 33° WSW 15:46:11 10° S daylight
15 Sep - 04:24:37 10° S 04:29:49 35° ESE 04:35:14 10° NE night (unlit)
15 Sep - 06:06:50 10° WSW 06:12:16 37° NW 06:17:54 10° NNE visible
15 Sep - 13:10:07 10° N 13:14:28 21° NE 13:18:33 10° E daylight
15 Sep - 14:51:51 10° NW 14:57:29 61° WSW 15:02:34 10° SSE daylight
16 Sep - 03:41:45 10° SSE 03:45:48 20° ESE 03:50:00 10° ENE night (unlit)
16 Sep - 05:21:57 10° SW 05:27:44 62° WNW 05:33:47 10° NNE visible
16 Sep - 07:09:01 10° WNW 07:11:31 13° NW 07:14:03 10° NNW visible
16 Sep - 12:26:49 10° N 12:29:35 13° NE 12:32:16 10° ENE daylight
16 Sep - 14:07:26 10° NNW 14:13:11 75° ENE 14:18:24 10° SSE daylight
16 Sep - 15:52:21 10° WNW 15:54:47 13° W 15:57:09 10° SW daylight
17 Sep - 03:01:46 10° E 03:01:55 10° E 03:02:04 10° E night (unlit)
17 Sep - 04:37:33 10° SSW 04:43:22 79° ESE 04:49:29 10° NNE visible
17 Sep - 06:22:23 10° W 06:26:36 20° NW 06:30:55 10° N visible
17 Sep - 13:23:16 10° NNW 13:28:43 42° NE 13:33:42 10° SE daylight
17 Sep - 15:06:24 10° NW 15:10:52 25° WSW 15:15:02 10° SSW daylight
18 Sep - 03:53:39 10° S 03:59:09 45° ESE 04:04:54 10° NE night (unlit)
18 Sep - 05:36:40 10° WSW 05:41:51 30° NW 05:47:10 10° N visible
18 Sep - 12:39:19 10° N 12:44:04 26° NE 12:48:30 10° ESE daylight
18 Sep - 14:21:26 10° NW 14:26:49 46° WSW 14:31:43 10° S daylight
19 Sep - 03:10:23 10° SSE 03:15:05 26° ESE 03:19:56 10° NE night (unlit)
19 Sep - 04:51:32 10° SW 04:57:14 49° WNW 05:03:09 10° NNE visible
19 Sep - 06:40:26 10° NW 06:41:15 10° NW 06:42:05 10° NNW visible
19 Sep - 11:55:43 10° N 11:59:15 16° NE 12:02:36 10° E daylight
19 Sep - 13:36:53 10° NNW 13:42:35 86° WSW 13:47:45 10° SSE daylight
20 Sep - 02:28:15 10° SE 02:31:07 14° ESE 02:34:02 10° ENE night (unlit)
20 Sep - 04:06:54 10° SSW 04:12:46 83° WNW 04:18:54 10° NNE visible
20 Sep - 05:52:37 10° W 05:56:14 16° NW 05:59:55 10° N visible
20 Sep - 11:13:36 10° NNE 11:14:14 10° NE 11:14:53 10° NE visible
20 Sep - 12:52:34 10° NNW 12:58:11 54° ENE 13:03:16 10° SE daylight
20 Sep - 14:36:19 10° WNW 14:40:05 19° WSW 14:43:37 10° SSW daylight
